| time (UTC) | temp C | wind direction | speed KPH | gust KPH | rain 1hr cm | rain 24hr cm | rain mn cm | humidity % | barometer mb |
| 20260510180005 | 27 | 117 | 4.8 | 17.7 | 0.00 | 0.03 | 0.00 | 48 | 1012.7 |
| 20260510175504 | 28 | 140 | 4.8 | 14.5 | 0.00 | 0.03 | 0.00 | 47 | 1012.6 |
| 20260510175004 | 28 | 164 | 4.8 | 14.5 | 0.00 | 0.03 | 0.00 | 44 | 1012.7 |
| 20260510174525 | 28 | 164 | 3.2 | 12.9 | 0.00 | 0.03 | 0.00 | 44 | 1012.8 |
| 20260510174026 | 28 | 161 | 4.8 | 12.9 | 0.00 | 0.03 | 0.00 | 44 | 1012.9 |
| 20260510173525 | 27 | 135 | 4.8 | 14.5 | 0.00 | 0.03 | 0.00 | 45 | 1012.8 |
| 20260510173004 | 27 | 158 | 4.8 | 14.5 | 0.00 | 0.03 | 0.00 | 45 | 1012.8 |
| 20260510172506 | 27 | 196 | 4.8 | 14.5 | 0.00 | 0.03 | 0.00 | 44 | 1012.8 |
| 20260510172004 | 27 | 191 | 6.4 | 14.5 | 0.00 | 0.03 | 0.00 | 44 | 1012.9 |
| 20260510171504 | 27 | 170 | 6.4 | 17.7 | 0.00 | 0.03 | 0.00 | 45 | 1012.8 |
| 20260510171025 | 27 | 128 | 4.8 | 17.7 | 0.00 | 0.03 | 0.00 | 45 | 1012.9 |
| 20260510170525 | 27 | 136 | 4.8 | 14.5 | 0.00 | 0.03 | 0.00 | 46 | 1012.9 |
| 20260510170025 | 27 | 183 | 3.2 | 12.9 | 0.00 | 0.03 | 0.00 | 44 | 1012.9 |
| 20260510165504 | 27 | 170 | 3.2 | 12.9 | 0.00 | 0.03 | 0.00 | 47 | 1012.9 |
| 20260510165027 | 27 | 168 | 4.8 | 12.9 | 0.00 | 0.03 | 0.00 | 45 | 1013.0 |
| 20260510164525 | 27 | 167 | 6.4 | 16.1 | 0.00 | 0.03 | 0.00 | 46 | 1013.1 |
| 20260510164025 | 27 | 170 | 6.4 | 19.3 | 0.00 | 0.03 | 0.00 | 45 | 1013.2 |
| 20260510163504 | 27 | 170 | 6.4 | 19.3 | 0.00 | 0.03 | 0.00 | 46 | 1013.2 |
| 20260510163005 | 27 | 159 | 4.8 | 12.9 | 0.00 | 0.03 | 0.00 | 48 | 1013.3 |
| 20260510162526 | 27 | 174 | 4.8 | 9.7 | 0.00 | 0.03 | 0.00 | 46 | 1013.2 |
| 20260510162005 | 27 | 182 | 4.8 | 20.9 | 0.00 | 0.03 | 0.00 | 46 | 1013.3 |
| 20260510161525 | 27 | 166 | 3.2 | 20.9 | 0.00 | 0.03 | 0.00 | 47 | 1013.3 |
| 20260510161026 | 27 | 177 | 4.8 | 11.3 | 0.00 | 0.03 | 0.00 | 49 | 1013.3 |
| 20260510160505 | 26 | 173 | 4.8 | 11.3 | 0.00 | 0.03 | 0.00 | 48 | 1013.4 |
| 20260510160025 | 26 | 179 | 4.8 | 11.3 | 0.00 | 0.03 | 0.00 | 50 | 1013.3 |
| 20260510155504 | 26 | 199 | 4.8 | 11.3 | 0.00 | 0.03 | 0.00 | 47 | 1013.3 |
| 20260510155004 | 26 | 166 | 3.2 | 9.7 | 0.00 | 0.03 | 0.00 | 50 | 1013.3 |
| 20260510154526 | 26 | 180 | 4.8 | 9.7 | 0.00 | 0.03 | 0.00 | 49 | 1013.4 |
| 20260510154026 | 26 | 217 | 4.8 | 11.3 | 0.00 | 0.03 | 0.00 | 48 | 1013.3 |
| 20260510153505 | 26 | 214 | 3.2 | 11.3 | 0.00 | 0.03 | 0.00 | 49 | 1013.4 |
| 20260510153004 | 26 | 175 | 3.2 | 9.7 | 0.00 | 0.03 | 0.00 | 49 | 1013.3 |
| 20260510152505 | 26 | 147 | 3.2 | 9.7 | 0.00 | 0.03 | 0.00 | 49 | 1013.3 |
| 20260510152004 | 26 | 250 | 3.2 | 12.9 | 0.00 | 0.03 | 0.00 | 48 | 1013.3 |
| 20260510151505 | 26 | 319 | 3.2 | 12.9 | 0.00 | 0.03 | 0.00 | 50 | 1013.4 |
| 20260510151025 | 26 | 310 | 4.8 | 14.5 | 0.00 | 0.03 | 0.00 | 49 | 1013.3 |
| 20260510150525 | 26 | 264 | 3.2 | 14.5 | 0.00 | 0.03 | 0.00 | 50 | 1013.3 |
| 20260510150025 | 25 | 284 | 1.6 | 14.5 | 0.00 | 0.03 | 0.00 | 51 | 1013.2 |
| 20260510145504 | 25 | 280 | 1.6 | 14.5 | 0.00 | 0.03 | 0.00 | 53 | 1013.2 |
| 20260510145005 | 25 | 114 | 1.6 | 8.0 | 0.00 | 0.03 | 0.00 | 53 | 1013.0 |
| 20260510144526 | 25 | 101 | 1.6 | 6.4 | 0.00 | 0.03 | 0.00 | 57 | 1013.0 |
| 20260510144004 | 25 | 132 | 1.6 | 6.4 | 0.00 | 0.03 | 0.00 | 58 | 1013.0 |
| 20260510143504 | 25 | 131 | 1.6 | 4.8 | 0.00 | 0.03 | 0.00 | 59 | 1012.9 |
| 20260510143004 | 24 | 87 | 1.6 | 4.8 | 0.00 | 0.03 | 0.00 | 60 | 1012.8 |
| 20260510142527 | 23 | 98 | 1.6 | 4.8 | 0.00 | 0.03 | 0.00 | 58 | 1012.8 |
| 20260510142025 | 23 | 103 | 1.6 | 4.8 | 0.00 | 0.03 | 0.00 | 62 | 1012.9 |
| 20260510141504 | 23 | 102 | 1.6 | 4.8 | 0.00 | 0.03 | 0.00 | 63 | 1013.0 |
| 20260510141026 | 22 | 76 | 1.6 | 4.8 | 0.00 | 0.03 | 0.00 | 63 | 1013.1 |
| 20260510140504 | 22 | 93 | 1.6 | 4.8 | 0.00 | 0.03 | 0.00 | 66 | 1013.1 |
| 20260510140025 | 22 | 96 | 1.6 | 4.8 | 0.00 | 0.03 | 0.00 | 66 | 1013.1 |
| 20260510135525 | 22 | 304 | 1.6 | 4.8 | 0.00 | 0.03 | 0.00 | 68 | 1013.1 |
| 20260510135004 | 21 | 42 | 1.6 | 4.8 | 0.00 | 0.03 | 0.00 | 68 | 1013.2 |
| 20260510134505 | 21 | 74 | 1.6 | 4.8 | 0.00 | 0.03 | 0.00 | 70 | 1013.1 |
| 20260510134005 | 20 | 98 | 1.6 | 4.8 | 0.00 | 0.03 | 0.00 | 73 | 1013.1 |
| 20260510133504 | 20 | 104 | 1.6 | 4.8 | 0.00 | 0.03 | 0.00 | 73 | 1013.0 |
| 20260510133025 | 20 | 93 | 1.6 | 4.8 | 0.00 | 0.03 | 0.00 | 75 | 1013.0 |
| 20260510132505 | 19 | 93 | 1.6 | 4.8 | 0.00 | 0.03 | 0.00 | 75 | 1013.0 |
| 20260510132004 | 19 | 92 | 1.6 | 4.8 | 0.00 | 0.03 | 0.00 | 78 | 1013.1 |
| 20260510131526 | 18 | 83 | 1.6 | 4.8 | 0.00 | 0.03 | 0.00 | 79 | 1013.2 |
| 20260510131004 | 18 | 75 | 0.0 | 3.2 | 0.00 | 0.03 | 0.00 | 84 | 1013.3 |
| 20260510130525 | 18 | 178 | 0.0 | 3.2 | 0.00 | 0.03 | 0.00 | 87 | 1013.3 |
| 20260510130004 | 17 | 190 | 0.0 | 1.6 | 0.00 | 0.03 | 0.00 | 91 | 1013.4 |
| 20260510125526 | 16 | 214 | 0.0 | 3.2 | 0.00 | 0.03 | 0.00 | 92 | 1013.4 |
| 20260510125004 | 16 | 97 | 1.6 | 3.2 | 0.00 | 0.03 | 0.00 | 94 | 1013.4 |
| 20260510124504 | 15 | 97 | 1.6 | 3.2 | 0.00 | 0.03 | 0.00 | 95 | 1013.4 |
| 20260510124025 | 15 | 79 | 1.6 | 3.2 | 0.00 | 0.03 | 0.00 | 95 | 1013.5 |
| 20260510123504 | 15 | 42 | 1.6 | 3.2 | 0.00 | 0.03 | 0.00 | 95 | 1013.5 |
| 20260510123004 | 14 | 24 | 0.0 | 3.2 | 0.00 | 0.03 | 0.00 | 95 | 1013.5 |
| 20260510122526 | 14 | 323 | 0.0 | 3.2 | 0.00 | 0.03 | 0.00 | 95 | 1013.5 |
| 20260510122025 | 13 | 323 | 0.0 | 1.6 | 0.00 | 0.03 | 0.00 | 95 | 1013.4 |
| 20260510121526 | 13 | 346 | 0.0 | 3.2 | 0.00 | 0.03 | 0.00 | 95 | 1013.3 |
| 20260510121004 | 13 | 90 | 1.6 | 3.2 | 0.00 | 0.03 | 0.00 | 95 | 1013.3 |
| 20260510120526 | 12 | 101 | 0.0 | 3.2 | 0.00 | 0.03 | 0.00 | 96 | 1013.3 |
| 20260510120025 | 12 | 101 | 0.0 | 3.2 | 0.00 | 0.03 | 0.00 | 95 | 1013.3 |
| 20260510115505 | 12 | 101 | 1.6 | 3.2 | 0.00 | 0.03 | 0.00 | 95 | 1013.2 |
| 20260510115004 | 12 | 101 | 0.0 | 3.2 | 0.00 | 0.03 | 0.00 | 95 | 1013.2 |
| 20260510114526 | 11 | 101 | 0.0 | 3.2 | 0.00 | 0.03 | 0.00 | 95 | 1013.1 |
| 20260510114025 | 11 | 0 | 0.0 | 0.0 | 0.00 | 0.03 | 0.00 | 95 | 1013.0 |
| 20260510113504 | 11 | 0 | 0.0 | 0.0 | 0.00 | 0.03 | 0.00 | 95 | 1012.9 |
| 20260510113005 | 10 | 0 | 0.0 | 0.0 | 0.00 | 0.03 | 0.00 | 95 | 1012.8 |
| 20260510112525 | 10 | 0 | 0.0 | 0.0 | 0.00 | 0.03 | 0.00 | 95 | 1012.8 |
| 20260510112004 | 10 | 0 | 0.0 | 0.0 | 0.00 | 0.03 | 0.00 | 95 | 1012.7 |
| 20260510111504 | 10 | 0 | 0.0 | 0.0 | 0.00 | 0.03 | 0.00 | 95 | 1012.6 |
| 20260510111005 | 10 | 0 | 0.0 | 0.0 | 0.00 | 0.03 | 0.00 | 94 | 1012.6 |
| 20260510110526 | 9 | 0 | 0.0 | 0.0 | 0.00 | 0.03 | 0.00 | 94 | 1012.5 |
| 20260510110005 | 9 | 0 | 0.0 | 0.0 | 0.00 | 0.03 | 0.00 | 94 | 1012.5 |
| 20260510105505 | 9 | 0 | 0.0 | 0.0 | 0.00 | 0.03 | 0.00 | 94 | 1012.4 |
| 20260510105025 | 9 | 0 | 0.0 | 0.0 | 0.00 | 0.03 | 0.00 | 94 | 1012.2 |
| 20260510104505 | 9 | 0 | 0.0 | 0.0 | 0.00 | 0.03 | 0.00 | 94 | 1012.0 |
| 20260510104004 | 9 | 0 | 0.0 | 0.0 | 0.00 | 0.03 | 0.00 | 94 | 1011.9 |
| 20260510103525 | 9 | 0 | 0.0 | 0.0 | 0.00 | 0.03 | 0.00 | 94 | 1011.8 |
| 20260510103004 | 9 | 0 | 0.0 | 0.0 | 0.00 | 0.03 | 0.00 | 94 | 1011.7 |
| 20260510102525 | 9 | 0 | 0.0 | 0.0 | 0.00 | 0.03 | 0.00 | 94 | 1011.7 |
| 20260510102025 | 9 | 0 | 0.0 | 0.0 | 0.00 | 0.03 | 0.00 | 94 | 1011.8 |
| 20260510101504 | 9 | 0 | 0.0 | 0.0 | 0.00 | 0.03 | 0.00 | 94 | 1011.6 |
| 20260510101025 | 9 | 0 | 0.0 | 0.0 | 0.00 | 0.03 | 0.00 | 94 | 1011.6 |
| 20260510100504 | 9 | 0 | 0.0 | 0.0 | 0.00 | 0.03 | 0.00 | 94 | 1011.6 |
| 20260510100005 | 9 | 0 | 0.0 | 0.0 | 0.00 | 0.03 | 0.00 | 94 | 1011.6 |
| 20260510095525 | 9 | 0 | 0.0 | 0.0 | 0.00 | 0.03 | 0.00 | 93 | 1011.7 |
| 20260510095004 | 9 | 0 | 0.0 | 0.0 | 0.00 | 0.03 | 0.00 | 93 | 1011.7 |
| 20260510094526 | 9 | 0 | 0.0 | 0.0 | 0.00 | 0.03 | 0.00 | 93 | 1011.7 |
| 20260510094025 | 10 | 0 | 0.0 | 0.0 | 0.00 | 0.03 | 0.00 | 93 | 1011.7 |
| 20260510093504 | 10 | 0 | 0.0 | 0.0 | 0.00 | 0.03 | 0.00 | 93 | 1011.7 |
| 20260510093025 | 10 | 0 | 0.0 | 0.0 | 0.00 | 0.03 | 0.00 | 93 | 1011.7 |
| 20260510092504 | 10 | 0 | 0.0 | 0.0 | 0.00 | 0.03 | 0.00 | 93 | 1011.6 |
| 20260510092004 | 10 | 0 | 0.0 | 0.0 | 0.00 | 0.03 | 0.00 | 93 | 1011.6 |
| 20260510091504 | 10 | 0 | 0.0 | 0.0 | 0.00 | 0.03 | 0.00 | 93 | 1011.5 |
| 20260510091004 | 10 | 0 | 0.0 | 0.0 | 0.00 | 0.03 | 0.00 | 93 | 1011.5 |
| 20260510090525 | 10 | 0 | 0.0 | 0.0 | 0.00 | 0.03 | 0.00 | 93 | 1011.5 |
| 20260510090025 | 10 | 0 | 0.0 | 0.0 | 0.00 | 0.03 | 0.00 | 93 | 1011.4 |
| 20260510085504 | 10 | 0 | 0.0 | 0.0 | 0.00 | 0.03 | 0.00 | 93 | 1011.3 |
| 20260510085004 | 10 | 0 | 0.0 | 0.0 | 0.00 | 0.03 | 0.00 | 93 | 1011.2 |
| 20260510084525 | 10 | 0 | 0.0 | 0.0 | 0.00 | 0.03 | 0.00 | 93 | 1011.2 |
| 20260510084025 | 10 | 0 | 0.0 | 0.0 | 0.00 | 0.03 | 0.00 | 93 | 1011.2 |
| 20260510083504 | 10 | 0 | 0.0 | 0.0 | 0.00 | 0.03 | 0.00 | 93 | 1011.1 |
| 20260510083004 | 10 | 0 | 0.0 | 0.0 | 0.00 | 0.03 | 0.00 | 93 | 1011.0 |
| 20260510082525 | 10 | 0 | 0.0 | 0.0 | 0.00 | 0.03 | 0.00 | 93 | 1011.0 |
| 20260510082004 | 10 | 101 | 0.0 | 1.6 | 0.00 | 0.03 | 0.00 | 92 | 1010.9 |
| 20260510081504 | 10 | 101 | 0.0 | 1.6 | 0.00 | 0.03 | 0.00 | 93 | 1010.8 |
| 20260510081005 | 10 | 0 | 0.0 | 0.0 | 0.00 | 0.03 | 0.00 | 93 | 1010.7 |
| 20260510080504 | 10 | 0 | 0.0 | 0.0 | 0.00 | 0.03 | 0.00 | 92 | 1010.6 |
| 20260510080025 | 10 | 0 | 0.0 | 0.0 | 0.00 | 0.03 | 0.00 | 92 | 1010.5 |
| 20260510075504 | 10 | 0 | 0.0 | 0.0 | 0.00 | 0.03 | 0.00 | 92 | 1010.5 |
| 20260510075025 | 10 | 0 | 0.0 | 0.0 | 0.00 | 0.03 | 0.00 | 92 | 1010.4 |
| 20260510074504 | 10 | 0 | 0.0 | 0.0 | 0.00 | 0.03 | 0.00 | 92 | 1010.4 |
| 20260510074004 | 10 | 0 | 0.0 | 0.0 | 0.00 | 0.03 | 0.00 | 92 | 1010.3 |
| 20260510073504 | 10 | 0 | 0.0 | 0.0 | 0.00 | 0.03 | 0.00 | 92 | 1010.4 |
| 20260510073005 | 10 | 0 | 0.0 | 0.0 | 0.00 | 0.03 | 0.00 | 92 | 1010.3 |
| 20260510072525 | 10 | 101 | 0.0 | 1.6 | 0.00 | 0.03 | 0.00 | 92 | 1010.3 |
| 20260510072004 | 11 | 101 | 0.0 | 1.6 | 0.00 | 0.03 | 0.00 | 92 | 1010.3 |
| 20260510071504 | 11 | 0 | 0.0 | 0.0 | 0.00 | 0.03 | 0.00 | 92 | 1010.4 |
| 20260510071025 | 11 | 0 | 0.0 | 0.0 | 0.00 | 0.03 | 0.00 | 92 | 1010.3 |
| 20260510070505 | 11 | 0 | 0.0 | 0.0 | 0.00 | 0.03 | 0.00 | 92 | 1010.2 |
| 20260510070025 | 11 | 0 | 0.0 | 0.0 | 0.00 | 0.03 | 0.00 | 92 | 1010.2 |
| 20260510065526 | 11 | 0 | 0.0 | 0.0 | 0.00 | 0.03 | 0.00 | 92 | 1010.2 |
| 20260510065004 | 11 | 0 | 0.0 | 0.0 | 0.00 | 0.03 | 0.00 | 92 | 1010.1 |
| 20260510064525 | 11 | 0 | 0.0 | 0.0 | 0.00 | 0.03 | 0.00 | 92 | 1010.1 |
| 20260510064025 | 11 | 0 | 0.0 | 0.0 | 0.00 | 0.03 | 0.00 | 92 | 1010.1 |
| 20260510063525 | 11 | 0 | 0.0 | 0.0 | 0.00 | 0.03 | 0.00 | 92 | 1010.1 |
| 20260510063025 | 11 | 0 | 0.0 | 0.0 | 0.00 | 0.03 | 0.00 | 92 | 1010.1 |
| 20260510062525 | 11 | 0 | 0.0 | 0.0 | 0.00 | 0.03 | 0.00 | 92 | 1010.1 |
| 20260510062025 | 11 | 0 | 0.0 | 0.0 | 0.00 | 0.03 | 0.00 | 92 | 1010.1 |
| 20260510061504 | 11 | 0 | 0.0 | 0.0 | 0.00 | 0.03 | 0.00 | 92 | 1010.0 |
| 20260510061026 | 11 | 0 | 0.0 | 0.0 | 0.00 | 0.03 | 0.00 | 91 | 1010.0 |
| 20260510060506 | 11 | 0 | 0.0 | 0.0 | 0.00 | 0.03 | 0.00 | 91 | 1010.0 |
| 20260510060025 | 11 | 101 | 0.0 | 1.6 | 0.00 | 0.03 | 0.00 | 91 | 1010.1 |
| 20260510055525 | 11 | 101 | 0.0 | 1.6 | 0.00 | 0.03 | 0.00 | 91 | 1010.1 |
| 20260510055025 | 12 | 101 | 0.0 | 1.6 | 0.00 | 0.03 | 0.00 | 91 | 1010.2 |
| 20260510054525 | 12 | 101 | 0.0 | 1.6 | 0.00 | 0.03 | 0.00 | 91 | 1010.2 |
| 20260510054004 | 12 | 101 | 0.0 | 1.6 | 0.00 | 0.03 | 0.00 | 91 | 1010.2 |
| 20260510053505 | 12 | 0 | 0.0 | 0.0 | 0.00 | 0.03 | 0.00 | 91 | 1010.2 |
| 20260510053004 | 12 | 0 | 0.0 | 0.0 | 0.00 | 0.03 | 0.00 | 91 | 1010.2 |
| 20260510052525 | 12 | 0 | 0.0 | 0.0 | 0.00 | 0.03 | 0.00 | 91 | 1010.2 |
| 20260510052004 | 12 | 0 | 0.0 | 0.0 | 0.00 | 0.03 | 0.00 | 91 | 1010.2 |
| 20260510051525 | 12 | 0 | 0.0 | 0.0 | 0.00 | 0.03 | 0.00 | 90 | 1010.2 |
| 20260510051026 | 12 | 0 | 0.0 | 0.0 | 0.00 | 0.03 | 0.00 | 90 | 1010.2 |
| 20260510050505 | 12 | 0 | 0.0 | 0.0 | 0.00 | 0.03 | 0.00 | 90 | 1010.2 |
| 20260510050005 | 12 | 0 | 0.0 | 0.0 | 0.00 | 0.03 | 0.00 | 90 | 1010.3 |
| 20260510045525 | 12 | 0 | 0.0 | 0.0 | 0.00 | 0.03 | 0.00 | 90 | 1010.3 |
| 20260510045025 | 12 | 0 | 0.0 | 0.0 | 0.00 | 0.03 | 0.00 | 90 | 1010.4 |
| 20260510044505 | 12 | 0 | 0.0 | 0.0 | 0.00 | 0.03 | 0.00 | 89 | 1010.4 |
| 20260510044004 | 12 | 0 | 0.0 | 0.0 | 0.00 | 0.03 | 0.00 | 89 | 1010.4 |
| 20260510043525 | 12 | 0 | 0.0 | 0.0 | 0.00 | 0.03 | 0.00 | 89 | 1010.4 |
| 20260510043025 | 12 | 0 | 0.0 | 0.0 | 0.00 | 0.03 | 0.00 | 89 | 1010.4 |
| 20260510042526 | 12 | 0 | 0.0 | 0.0 | 0.00 | 0.03 | 0.00 | 89 | 1010.2 |
| 20260510042005 | 13 | 0 | 0.0 | 0.0 | 0.00 | 0.03 | 0.00 | 89 | 1010.3 |
| 20260510041504 | 13 | 0 | 0.0 | 0.0 | 0.00 | 0.03 | 0.00 | 88 | 1010.2 |
| 20260510041025 | 13 | 0 | 0.0 | 0.0 | 0.00 | 0.03 | 0.00 | 88 | 1010.2 |
| 20260510040504 | 13 | 0 | 0.0 | 0.0 | 0.00 | 0.03 | 0.00 | 88 | 1010.2 |
| 20260510040005 | 13 | 0 | 0.0 | 0.0 | 0.00 | 0.03 | 0.00 | 88 | 1010.3 |
| 20260510035504 | 13 | 0 | 0.0 | 0.0 | 0.00 | 0.03 | 0.03 | 88 | 1010.3 |
| 20260510035026 | 13 | 0 | 0.0 | 0.0 | 0.00 | 0.03 | 0.03 | 88 | 1010.3 |
| 20260510034504 | 13 | 0 | 0.0 | 0.0 | 0.00 | 0.03 | 0.03 | 88 | 1010.2 |
| 20260510034026 | 13 | 0 | 0.0 | 0.0 | 0.00 | 0.03 | 0.03 | 88 | 1010.2 |
| 20260510033525 | 13 | 0 | 0.0 | 0.0 | 0.00 | 0.03 | 0.03 | 88 | 1010.1 |
| 20260510033025 | 13 | 0 | 0.0 | 0.0 | 0.00 | 0.03 | 0.03 | 87 | 1010.2 |
| 20260510032504 | 13 | 0 | 0.0 | 0.0 | 0.00 | 0.03 | 0.03 | 87 | 1010.2 |
| 20260510032025 | 13 | 0 | 0.0 | 0.0 | 0.00 | 0.03 | 0.03 | 87 | 1010.1 |
| 20260510031525 | 14 | 0 | 0.0 | 0.0 | 0.00 | 0.03 | 0.03 | 87 | 1010.1 |
| 20260510031004 | 14 | 0 | 0.0 | 0.0 | 0.00 | 0.03 | 0.03 | 87 | 1010.0 |
| 20260510030526 | 14 | 0 | 0.0 | 0.0 | 0.00 | 0.03 | 0.03 | 86 | 1010.0 |
| 20260510030004 | 14 | 0 | 0.0 | 0.0 | 0.00 | 0.03 | 0.03 | 86 | 1010.0 |
| 20260510025504 | 14 | 0 | 0.0 | 0.0 | 0.00 | 0.03 | 0.03 | 86 | 1010.0 |
| 20260510025025 | 14 | 0 | 0.0 | 0.0 | 0.00 | 0.03 | 0.03 | 86 | 1009.9 |
| 20260510024505 | 15 | 0 | 0.0 | 0.0 | 0.00 | 0.03 | 0.03 | 86 | 1009.9 |
| 20260510024005 | 15 | 0 | 0.0 | 0.0 | 0.00 | 0.03 | 0.03 | 86 | 1009.9 |
| 20260510023504 | 15 | 0 | 0.0 | 0.0 | 0.00 | 0.03 | 0.03 | 85 | 1009.9 |
| 20260510023004 | 15 | 0 | 0.0 | 0.0 | 0.00 | 0.03 | 0.03 | 85 | 1009.9 |
| 20260510022504 | 15 | 0 | 0.0 | 0.0 | 0.00 | 0.03 | 0.03 | 85 | 1010.1 |
| 20260510022004 | 15 | 0 | 0.0 | 0.0 | 0.00 | 0.03 | 0.03 | 84 | 1010.0 |
| 20260510021504 | 15 | 0 | 0.0 | 0.0 | 0.00 | 0.03 | 0.03 | 84 | 1009.9 |
| 20260510021004 | 15 | 0 | 0.0 | 0.0 | 0.00 | 0.03 | 0.03 | 83 | 1010.0 |
| 20260510020525 | 15 | 0 | 0.0 | 0.0 | 0.00 | 0.03 | 0.03 | 83 | 1009.9 |
| 20260510020004 | 15 | 0 | 0.0 | 0.0 | 0.00 | 0.03 | 0.03 | 83 | 1009.9 |
| 20260510015504 | 15 | 0 | 0.0 | 0.0 | 0.00 | 0.03 | 0.03 | 83 | 1009.8 |
| 20260510015026 | 16 | 0 | 0.0 | 0.0 | 0.00 | 0.03 | 0.03 | 83 | 1009.8 |
| 20260510014504 | 16 | 0 | 0.0 | 0.0 | 0.00 | 0.03 | 0.03 | 82 | 1009.8 |
| 20260510014004 | 16 | 0 | 0.0 | 0.0 | 0.00 | 0.03 | 0.03 | 82 | 1009.8 |
| 20260510013504 | 16 | 0 | 0.0 | 0.0 | 0.00 | 0.03 | 0.03 | 81 | 1009.6 |
| 20260510013004 | 16 | 101 | 0.0 | 1.6 | 0.00 | 0.03 | 0.03 | 81 | 1009.6 |
| 20260510012525 | 16 | 101 | 0.0 | 1.6 | 0.00 | 0.03 | 0.03 | 81 | 1009.6 |
| 20260510012004 | 16 | 101 | 0.0 | 1.6 | 0.00 | 0.03 | 0.03 | 81 | 1009.6 |
| 20260510011525 | 16 | 97 | 1.6 | 4.8 | 0.00 | 0.03 | 0.03 | 80 | 1009.6 |
| 20260510011005 | 16 | 62 | 1.6 | 4.8 | 0.00 | 0.03 | 0.03 | 79 | 1009.4 |
| 20260510010526 | 17 | 28 | 0.0 | 3.2 | 0.00 | 0.03 | 0.03 | 78 | 1009.4 |
| 20260510010025 | 17 | 53 | 0.0 | 3.2 | 0.00 | 0.03 | 0.03 | 78 | 1009.4 |
| 20260510005504 | 17 | 53 | 0.0 | 3.2 | 0.00 | 0.03 | 0.03 | 77 | 1009.3 |
| 20260510005005 | 17 | 53 | 0.0 | 1.6 | 0.00 | 0.03 | 0.03 | 76 | 1009.3 |
| 20260510004504 | 17 | 53 | 0.0 | 1.6 | 0.00 | 0.03 | 0.03 | 76 | 1009.3 |
| 20260510004025 | 17 | 53 | 0.0 | 1.6 | 0.00 | 0.03 | 0.03 | 75 | 1009.3 |
| 20260510003504 | 18 | 53 | 0.0 | 1.6 | 0.00 | 0.03 | 0.03 | 75 | 1009.1 |
| 20260510003025 | 18 | 65 | 0.0 | 3.2 | 0.00 | 0.03 | 0.03 | 74 | 1009.1 |
| 20260510002525 | 18 | 46 | 0.0 | 3.2 | 0.00 | 0.03 | 0.03 | 74 | 1009.1 |
| 20260510002026 | 18 | 23 | 0.0 | 1.6 | 0.00 | 0.03 | 0.03 | 73 | 1009.1 |
| 20260510001504 | 18 | 26 | 0.0 | 3.2 | 0.00 | 0.03 | 0.03 | 72 | 1009.1 |
| 20260510001004 | 19 | 31 | 0.0 | 3.2 | 0.00 | 0.03 | 0.03 | 72 | 1009.0 |
| 20260510000525 | 19 | 43 | 0.0 | 3.2 | 0.00 | 0.03 | 0.03 | 72 | 1009.0 |
| 20260510000025 | 19 | 59 | 0.0 | 1.6 | 0.00 | 0.03 | 0.03 | 71 | 1009.0 |
| 20260509235504 | 20 | 59 | 0.0 | 1.6 | 0.00 | 0.03 | 0.03 | 70 | 1008.8 |
| 20260509235025 | 20 | 59 | 0.0 | 1.6 | 0.00 | 0.03 | 0.03 | 69 | 1008.8 |
| 20260509234504 | 20 | 59 | 0.0 | 3.2 | 0.00 | 0.03 | 0.03 | 69 | 1008.7 |
| 20260509234004 | 20 | 59 | 0.0 | 3.2 | 0.00 | 0.03 | 0.03 | 69 | 1008.8 |
| 20260509233525 | 20 | 59 | 0.0 | 1.6 | 0.00 | 0.03 | 0.03 | 68 | 1008.7 |
| 20260509233025 | 20 | 61 | 0.0 | 3.2 | 0.00 | 0.03 | 0.03 | 68 | 1008.6 |
| 20260509232504 | 20 | 64 | 0.0 | 3.2 | 0.00 | 0.03 | 0.03 | 67 | 1008.6 |
| 20260509232004 | 21 | 71 | 0.0 | 3.2 | 0.00 | 0.03 | 0.03 | 67 | 1008.6 |
| 20260509231505 | 21 | 71 | 0.0 | 3.2 | 0.00 | 0.03 | 0.03 | 67 | 1008.5 |
| 20260509231025 | 21 | 73 | 0.0 | 3.2 | 0.00 | 0.03 | 0.03 | 67 | 1008.5 |
| 20260509230525 | 21 | 73 | 0.0 | 3.2 | 0.00 | 0.03 | 0.03 | 67 | 1008.5 |
| 20260509230025 | 21 | 72 | 0.0 | 1.6 | 0.00 | 0.03 | 0.03 | 68 | 1008.5 |
| 20260509225504 | 21 | 76 | 0.0 | 6.4 | 0.00 | 0.03 | 0.03 | 67 | 1008.4 |
| 20260509225004 | 21 | 69 | 1.6 | 6.4 | 0.00 | 0.03 | 0.03 | 67 | 1008.5 |
| 20260509224525 | 21 | 68 | 1.6 | 4.8 | 0.00 | 0.03 | 0.03 | 66 | 1008.5 |
| 20260509224005 | 21 | 71 | 1.6 | 6.4 | 0.00 | 0.03 | 0.03 | 66 | 1008.5 |
| 20260509223504 | 21 | 71 | 1.6 | 6.4 | 0.00 | 0.03 | 0.03 | 66 | 1008.6 |
| 20260509223026 | 21 | 72 | 1.6 | 6.4 | 0.00 | 0.03 | 0.03 | 65 | 1008.5 |
| 20260509222525 | 22 | 75 | 1.6 | 6.4 | 0.00 | 0.03 | 0.03 | 65 | 1008.6 |
| 20260509222004 | 22 | 71 | 1.6 | 6.4 | 0.00 | 0.03 | 0.03 | 64 | 1008.5 |
| 20260509221504 | 22 | 53 | 1.6 | 9.7 | 0.00 | 0.03 | 0.03 | 63 | 1008.5 |
| 20260509221025 | 22 | 61 | 1.6 | 9.7 | 0.00 | 0.03 | 0.03 | 64 | 1008.5 |
| 20260509220525 | 22 | 95 | 1.6 | 6.4 | 0.00 | 0.03 | 0.03 | 63 | 1008.6 |
| 20260509220004 | 22 | 93 | 1.6 | 6.4 | 0.00 | 0.03 | 0.03 | 61 | 1008.5 |
| 20260509215525 | 22 | 57 | 0.0 | 4.8 | 0.00 | 0.03 | 0.03 | 63 | 1008.5 |
| 20260509215005 | 22 | 97 | 0.0 | 4.8 | 0.00 | 0.03 | 0.03 | 64 | 1008.5 |
| 20260509214526 | 22 | 111 | 0.0 | 4.8 | 0.00 | 0.03 | 0.03 | 64 | 1008.6 |
| 20260509214005 | 22 | 111 | 0.0 | 3.2 | 0.00 | 0.03 | 0.03 | 66 | 1008.6 |
| 20260509213525 | 21 | 94 | 1.6 | 3.2 | 0.00 | 0.03 | 0.03 | 66 | 1008.5 |
| 20260509213006 | 21 | 86 | 1.6 | 4.8 | 0.00 | 0.03 | 0.03 | 68 | 1008.6 |
| 20260509212525 | 21 | 80 | 1.6 | 6.4 | 0.00 | 0.03 | 0.03 | 66 | 1008.5 |
| 20260509212026 | 21 | 95 | 1.6 | 6.4 | 0.00 | 0.03 | 0.03 | 66 | 1008.6 |
| 20260509211504 | 21 | 127 | 1.6 | 4.8 | 0.00 | 0.03 | 0.03 | 67 | 1008.5 |
| 20260509211025 | 21 | 112 | 1.6 | 4.8 | 0.00 | 0.03 | 0.03 | 67 | 1008.5 |
| 20260509210525 | 21 | 96 | 1.6 | 6.4 | 0.00 | 0.03 | 0.03 | 66 | 1008.4 |
| 20260509210004 | 21 | 101 | 1.6 | 9.7 | 0.00 | 0.03 | 0.03 | 66 | 1008.4 |
| 20260509205525 | 21 | 114 | 3.2 | 9.7 | 0.00 | 0.03 | 0.03 | 66 | 1008.4 |
| 20260509205026 | 21 | 109 | 3.2 | 11.3 | 0.00 | 0.03 | 0.03 | 65 | 1008.4 |
| 20260509204526 | 21 | 113 | 1.6 | 11.3 | 0.00 | 0.03 | 0.03 | 64 | 1008.3 |
| 20260509204005 | 21 | 90 | 1.6 | 8.0 | 0.00 | 0.03 | 0.03 | 66 | 1008.4 |
| 20260509203525 | 21 | 85 | 3.2 | 8.0 | 0.00 | 0.03 | 0.03 | 65 | 1008.3 |
| 20260509203025 | 21 | 87 | 1.6 | 6.4 | 0.00 | 0.03 | 0.03 | 64 | 1008.5 |
| 20260509202525 | 21 | 77 | 1.6 | 6.4 | 0.00 | 0.03 | 0.03 | 67 | 1008.5 |
| 20260509202005 | 21 | 113 | 1.6 | 4.8 | 0.00 | 0.03 | 0.03 | 71 | 1008.6 |
| 20260509201525 | 21 | 79 | 1.6 | 4.8 | 0.00 | 0.03 | 0.03 | 71 | 1008.7 |
| 20260509201025 | 20 | 18 | 0.0 | 4.8 | 0.00 | 0.03 | 0.03 | 74 | 1008.8 |
| 20260509200525 | 20 | 16 | 0.0 | 3.2 | 0.00 | 0.03 | 0.03 | 74 | 1009.0 |
| 20260509200026 | 20 | 18 | 0.0 | 3.2 | 0.00 | 0.03 | 0.03 | 73 | 1009.0 |
| 20260509195504 | 20 | 0 | 0.0 | 0.0 | 0.03 | 0.03 | 0.03 | 73 | 1009.2 |
| 20260509195004 | 20 | 0 | 0.0 | 0.0 | 0.03 | 0.03 | 0.03 | 75 | 1009.2 |
| 20260509194504 | 20 | 0 | 0.0 | 0.0 | 0.03 | 0.03 | 0.03 | 75 | 1009.2 |
| 20260509194025 | 20 | 78 | 0.0 | 1.6 | 0.03 | 0.03 | 0.03 | 78 | 1009.2 |
| 20260509193525 | 19 | 63 | 0.0 | 4.8 | 0.03 | 0.03 | 0.03 | 77 | 1009.3 |
| 20260509193004 | 20 | 35 | 1.6 | 4.8 | 0.03 | 0.03 | 0.03 | 80 | 1009.4 |
| 20260509192525 | 19 | 33 | 1.6 | 4.8 | 0.03 | 0.03 | 0.03 | 82 | 1009.3 |
| 20260509192025 | 18 | 60 | 1.6 | 4.8 | 0.03 | 0.03 | 0.03 | 83 | 1009.3 |
| 20260509191504 | 18 | 78 | 1.6 | 6.4 | 0.03 | 0.03 | 0.03 | 80 | 1009.4 |
| 20260509191004 | 18 | 93 | 1.6 | 6.4 | 0.03 | 0.03 | 0.03 | 81 | 1009.5 |
| 20260509190525 | 18 | 92 | 1.6 | 4.8 | 0.03 | 0.03 | 0.03 | 81 | 1009.7 |
| 20260509190025 | 18 | 93 | 1.6 | 4.8 | 0.03 | 0.03 | 0.03 | 76 | 1009.8 |
| 20260509185504 | 18 | 81 | 1.6 | 6.4 | 0.00 | 0.00 | 0.00 | 75 | 1009.9 |
| 20260509185025 | 18 | 79 | 1.6 | 6.4 | 0.00 | 0.00 | 0.00 | 73 | 1009.9 |
| 20260509184504 | 18 | 0 | 0.0 | 0.0 | 0.00 | 0.00 | 0.00 | 72 | 1009.8 |
| 20260509184004 | 19 | 0 | 0.0 | 0.0 | 0.00 | 0.00 | 0.00 | 71 | 1009.8 |
| 20260509183525 | 19 | 0 | 0.0 | 0.0 | 0.00 | 0.00 | 0.00 | 70 | 1009.7 |
| 20260509183005 | 19 | 0 | 0.0 | 0.0 | 0.00 | 0.00 | 0.00 | 71 | 1009.8 |
| 20260509182525 | 19 | 337 | 0.0 | 3.2 | 0.00 | 0.00 | 0.00 | 71 | 1009.8 |
| 20260509182004 | 18 | 337 | 0.0 | 3.2 | 0.00 | 0.00 | 0.00 | 71 | 1009.9 |
| 20260509181525 | 18 | 337 | 0.0 | 1.6 | 0.00 | 0.00 | 0.00 | 71 | 1010.2 |
| 20260509181025 | 18 | 336 | 0.0 | 1.6 | 0.00 | 0.00 | 0.00 | 70 | 1010.4 |
| 20260509180525 | 18 | 335 | 0.0 | 1.6 | 0.00 | 0.00 | 0.00 | 69 | 1010.4 |